Showing default

TJS-15, 63157

Orbit data source: Space-Track

TJS-15, 63157 is a payload satellite owned by PLA SSF (CN) in GEO that was launched on Sun, 09 Mar 2025 UTC via a CHANG ZHENG 3B launch vehicle from the Xichang Space Center, China (XSC). Payload-class satellites include a variety of spacecraft equipped with specific instruments for various scientific and technological missions. These include communications satellites like Starlink; space stations such as the ISS; scientific satellites like the Hubble; Earth observation satellites from companies like Planet Labs, Umbra, and HawkEye 360; GPS; miniature CubeSats for education and research; and military/defense satellites.

Not visible in the next 10 days
Identifier
63157, 2025-045A
Orbit
GEO
Country
Flag of CNCN / PRC
Related business
Manufacturer
SISE
Mission
Operational Defense Sigint
Bus & Motor
FY-4?, LAE
Mass
~5,000 kg wet, ~2,500 kg dry
Launch date (UTC)
2025-03-09 (11 months ago)
Launch vehicle
CHANG ZHENG 3B
Launch site
Xichang Space Center, China (XSC)
Object type
Payload
Rocket body
Debris
Shape & HBR
Box + 2 Pan, 22.5 m
Radar Cross Section
34.063 m², Large (>1 m²)

Expand to show TLE details & history
Last TLE update: 18 hours ago

TLE from 18 hours ago
0 TJS-15
1 63157U 25045A   26033.79315740 -.00000274  00000-0  00000+0 0  9991
2 63157   0.1617  89.3506 0007086 244.8735 178.6296  1.00270011  3413
Epoch: 2026-02-02T19:02Z
TLE epoch observation values (Epoch: 2026-02-02T19:02:08.799Z)
Latitude
0.16727°
Longitude
94.37333°
Altitude
35,816.554 km
Speed
3.073 km/s
True Right ascension
10h 11m 34s
True Declination
0° 10' 02"
Sunlit
Object was in daylight at epoch
Visualization orbit readout
Latitude
Unknown
Longitude
Unknown
Altitude
Unknown
Speed
Unknown
Apparent Right ascension
Unknown
Apparent Declination
Unknown
Sunlit
N/A
Visualization observer readout
Local Sidereal Time
14:35:00
Azimuth
Unknown
Elevation
Unknown
Doppler factor
Unknown
Orbital elements
Apogee altitude
35,818.042 km
Perigee altitude
35,758.284 km
Semi-major axis
42,166.3 km
Eccentricity
0.00071
Inclination
0.1617°
RAAN
89.3506°
Arg. of periapsis
244.8735°
True anomaly
178.63154°
Mean anomaly
178.6296°
Eccentric anomaly
178.63057°
Mean motion
0.25067 °/min
Orbital period
1,436.18 mins
BSTAR
0
Loading maneuver chart data...
Computing Atmospheric mass density...
Loading historical data...
Loading historical data...
Loading historical data...
Loading historical data...
Loading historical data...
Loading historical data...
Loading historical data...
Other satellites on launch #45 in the year 2025 (2025-03-09 UTC)

Documentation

Showing up to 5 results
|